Flag for U.S.A. Weather past 2 weeks in Seattle, Washington, U.S.A.

Now
66 °F

Clear.


Feels Like: 66 °F
Forecast: 60 / 73 °F
Wind: 7 mph from Southeast

Location: Seattle Boeing Field

Current Time: Sep 16, 2014 at 11:38:49 PM

Latest Report: Sep 16, 2014 at 10:53 PM


Visibility: 10 mi

Pressure: 29.87 "Hg

Humidity: 65%

Dew point: 54 °F

Location of SeattleLocation

Historic Weather in Seattle — Graph

°F

Seattle temperature yesterday

Maximum temperature yesterday: 86 °F (at 4:53 PM)
Minimum temperature yesterday: 56 °F (at 4:53 AM)
Average temperature yesterday: 70 °F

Past Weeks' High & Low Weather Summary

 TemperatureHumidityPressure
High87 °F (Sep 6, 4:53 PM)88% (Sep 4, 8:00 AM)30.30 "Hg (Sep 4, 8:00 AM)
Low52 °F (Sep 14, 6:53 AM)17% (Sep 11, 4:53 PM)29.77 "Hg (Sep 15, 5:53 PM)
Average67 °F55%29.99 "Hg
* Reported Sep 1 9:53 PM — Sep 16 9:53 PM, Seattle, Weather by CustomWeather, © 2014

Note: Actual official high and low records may vary slightly from our data, if they occured in-between our weather recording intervals... More about our weather records

Advertising

Seattle weather history for previous 24 hours

 ConditionsComfort  
Time TempWeatherWind HumidityBarometerVisibility
9:53 PM
Sep 16
66 °FPassing clouds.5 mph65%29.87 "Hg10 mi
8:53 PM68 °FPassing clouds.No wind61%29.87 "Hg10 mi
7:53 PM69 °FSunny.3 mph59%29.87 "Hg10 mi
6:53 PM71 °FPartly sunny.5 mph55%29.86 "Hg10 mi
5:53 PM72 °FPartly sunny.3 mph55%29.86 "Hg10 mi
4:53 PM73 °FSunny.8 mph51%29.87 "Hg10 mi
3:53 PM75 °FSunny.7 mph48%29.87 "Hg10 mi
2:53 PM73 °FPartly sunny.7 mph50%29.87 "Hg10 mi
1:53 PM74 °FSunny.8 mph50%29.88 "Hg10 mi
12:53 PM72 °FSunny.3 mph55%29.89 "Hg10 mi
11:53 AM70 °FSunny.9 mph59%29.90 "Hg10 mi
10:53 AM65 °FPassing clouds.8 mph70%29.90 "Hg10 mi
9:53 AM64 °FOvercast.9 mph73%29.90 "Hg10 mi
8:53 AM63 °FOvercast.10 mph73%29.90 "Hg10 mi
7:53 AM62 °FPassing clouds.5 mph75%29.88 "Hg10 mi
6:53 AM61 °FPartly cloudy.8 mph75%29.88 "Hg10 mi
5:53 AM61 °FPassing clouds.9 mph75%29.87 "Hg10 mi
4:53 AM60 °FClear.8 mph78%29.88 "Hg10 mi
3:53 AM60 °FClear.9 mph75%29.87 "Hg10 mi
2:53 AM61 °FClear.6 mph65%29.85 "Hg10 mi
1:53 AM63 °FClear.No wind60%29.83 "Hg10 mi
12:53 AM66 °FClear.No wind54%29.81 "Hg10 mi
11:53 PM
Sep 15
67 °FClear.No wind53%29.81 "Hg10 mi
Weather by CustomWeather, © 2014

See weather overviewHow to use our weather pages